Regional Weather Roundup
Issued by NWS

Home | Current Version | Previous Version | Text Only | Print | Product List | Glossary Off
Versions: 1 2 3 4 5 6 7 8 9 10 11 12 13 14 15 16 17 18 19 20 21 22 23 24 25 26 27 28 29 30 31 32 33 34 35 36 37 38 39 40 41 42 43 44 45 46 47 48 49 50

000
ASUS45 KPSR 021400
RWRAZ

PRELIMINARY ARIZONA REGIONAL HOURLY WEATHER ROUNDUP
NATIONAL WEATHER SERVICE PHOENIX AZ
700 AM MST MON MAR 02 2015

NOTE: FAIR INDICATES FEW OR NO CLOUDS BELOW 12,000 FEET WITH NO
SIGNIFICANT WEATHER AND/OR OBSTRUCTIONS TO VISIBILITY.

AZZ001>003-036-021500-
NORTHWEST ARIZONA

CITY           SKY/WX    TMP DP  RH WIND       PRES   REMARKS
KINGMAN        LGT RAIN  41  37  86 S6        29.83F
$$

AZZ004>008-015-016-018-021500-
NORTH CENTRAL ARIZONA

CITY           SKY/WX    TMP DP  RH WIND       PRES   REMARKS
GRAND CANYON   FLURRIES  37  35  92 S12       29.82F WCI  29
PRESCOTT       LGT RAIN  46  39  76 S16G25    29.81F
FLAGSTAFF      NOT AVBL
PAGE           CLOUDY    38  35  89 N5        29.80F WCI  34
$$

AZZ009>014-017-021500-
NORTHEAST ARIZONA

CITY           SKY/WX    TMP DP  RH WIND       PRES   REMARKS
WINSLOW        NOT AVBL
SAINT JOHNS    CLEAR     30  26  85 CALM      29.93F
WINDOW ROCK    CLEAR     33  30  88 CALM      29.96F
$$

AZZ023-021500-
GREATER PHOENIX AREA

CITY           SKY/WX    TMP DP  RH WIND       PRES   REMARKS
PHOENIX        CLOUDY    64  49  57 S8        29.85F
GLENDALE       CLOUDY    64  48  55 E13G18    29.85F
LUKE AFB       MOCLDY    63  50  63 SE13      29.82F
DEER VALLEY    CLOUDY    61  48  62 S15G29    29.83F
SCOTTSDALE     CLOUDY    62  48  60 S8G16     29.88S
MESA-FALCON    CLOUDY    61  48  63 SE6       29.88S
CHANDLER       CLOUDY    63  50  63 SE13      29.89S
$$

AZZ027-028-021500-
SOUTHWEST MARICOPA COUNTY AND PINAL COUNTY

CITY           SKY/WX    TMP DP  RH WIND       PRES   REMARKS
CASA GRANDE    CLOUDY    61  48  63 S7        29.90S
$$

AZZ503-504-507>509-021500-
SOUTHEAST ARIZONA

CITY           SKY/WX    TMP DP  RH WIND       PRES   REMARKS
TUCSON         CLOUDY    61  45  55 CALM      29.97S
DAVIS-MONTHAN  CLOUDY    58  45  61 VRB6      29.95S
RYAN FIELD       N/A     61  46  59 SE8       29.96S
NOGALES        CLOUDY    55  43  63 S17       30.01R
SIERRA VISTA   MOCLDY    54  39  58 S14G22    29.99F
SAFFORD        PTCLDY    59  33  37 S12       29.93S
$$

AZZ020-021-025-026-031-021500-
SOUTHWEST ARIZONA

CITY           SKY/WX    TMP DP  RH WIND       PRES   REMARKS
YUMA           NOT AVBL
$$

CAZ031-033-041-043-047-048-061-021500-
SOUTHERN CALIFORNIA

CITY           SKY/WX    TMP DP  RH WIND       PRES   REMARKS
DOWNTOWN L.A.  CLEAR     49  46  90 CALM      29.90R
L.A. AIRPORT   PTCLDY    48  47  96 CALM      29.91R
SAN DIEGO      LGT RAIN  53  47  79 E7        29.93R
BURBANK        CLOUDY    46  42  86 CALM      29.89R
ONTARIO        CLOUDY    47  42  83 E5        29.89R
RIVERSIDE      LGT RAIN  47  43  86 E5        29.90R
PALM SPRINGS   CLOUDY    51  48  89 CALM      29.90S
EL CENTRO NAS  MOCLDY    51  50  96 SE6       29.90R
IMPERIAL       MOCLDY    52  50  93 S3        29.90R
BLYTHE         CLOUDY    51  50  96 CALM      29.88S
NEEDLES        LGT RAIN  50  46  87 CALM      29.86F
$$

NVZ020-UTZ003-021500-
SOUTHERN NEVADA-UTAH

CITY           SKY/WX    TMP DP  RH WIND       PRES   REMARKS
LAS VEGAS      NOT AVBL
SALT LAKE CITY CLOUDY    39  31  72 S6        29.79F WCI  35
$$

NMZ009-TXZ055-021500-
NEW MEXICO-WEST TEXAS

CITY           SKY/WX    TMP DP  RH WIND       PRES   REMARKS
ALBUQUERQUE    CLOUDY    36  29  75 N13       30.05F WCI  27
EL PASO        CLOUDY    56  32  40 E15       30.05R
$$


........................KEY........................
SKY/WX - SKY CONDITION/WEATHER
TMP    - TEMPERATURE IN FAHRENHEIT
DP     - DEW POINT IN FAHRENHEIT
RH     - RELATIVE HUMIDITY IN PERCENT
WIND   - DIRECTION AND SPEED IN MILES PER HOUR (MPH)
VRB    - VARIABLE WIND DIRECTION
PRES   - MEAN SEA LEVEL PRESSURE IN INCHES OF MERCURY
         F - FALLING PRESSURE   R - RISING PRESSURE
         S - STEADY PRESSURE
VSB    - VISIBILITY IN MILES
HX     - HEAT INDEX IN FAHRENHEIT
WCI    - WIND CHILL INDEX IN FAHRENHEIT
TC     - TEMPERATURE IN CELSIUS WHICH IS ALSO KNOWN AS
         TEMPERATURE IN CENTIGRADE
AFB    - AIR FORCE BASE
         LUKE AFB IS LUKE AIR FORCE BASE
         DAVIS-MONTHAN IS DAVIS-MONTHAN AIR FORCE BASE
NAS    - NAVAL AIR STATION
         EL CENTRO NAS IS EL CENTRO NAVAL AIR STATION
N/A    - NOT AVAILABLE


USA.gov is the U.S. government's official web portal to all federal, state and local government web resources and services.